User: anonymous   Login
Location: Pian di Sc�
(43.6333°N, 11.5500°E)
Time: 09:26:37
(UTC+00:00)
Language:

Cosmos 1892 Rocket - Orbit

View from above orbital plane
View from above orbital plane
View from above satellite
View from above satellite

Ground track
Ground track

The orbit data is extracted from the following two-line orbital elements,

1 18422U 87088B   20293.79467573 +.00000061 +00000-0 +45590-5 0  9997
2 18422 082.5085 113.0171 0020122 022.6794 348.1254 14.83044568782724
Epoch (UTC): 19 October 2020 19:04:19
Eccentricity: 0.0020122
inclination: 82.5085°
perigee height: 605 km
apogee height: 634 km
right ascension of ascending node: 113.0171°
argument of perigee: 22.6794°
revolutions per day: 14.83044568
mean anomaly at epoch: 348.1254°
orbit number at epoch: 78272

The dashed part of the orbit path shows where the satellite is in the earth's shadow,  

DLR